�������l�o���
Date,Time,MP-1(��Sv/h),MP-2(��Sv/h),MP-3(��Sv/h),MP-4(��Sv/h),MP-5(��Sv/h),MP-6(��Sv/h),MP-7(��Sv/h),MP-8(��Sv/h),����,����(m/s),���J
2019/10/19,00:00,0.717,1.020,0.677,1.253,0.888,0.411,0.714,0.679,�k�k��,2.8,�L
2019/10/19,00:10,0.714,1.020,0.679,1.255,0.886,0.413,0.714,0.679,�k�k��,4.0,�L
2019/10/19,00:20,0.716,1.017,0.677,1.253,0.886,0.412,0.714,0.678,�k�k��,5.2,�L
2019/10/19,00:30,0.715,1.013,0.678,1.253,0.885,0.412,0.711,0.679,�k�k��,4.9,�L
2019/10/19,00:40,0.716,1.014,0.678,1.252,0.885,0.413,0.712,0.677,�k�k��,4.6,�L
2019/10/19,00:50,0.711,1.008,0.675,1.246,0.881,0.414,0.710,0.676,�k,4.5,�L
2019/10/19,01:00,0.712,1.005,0.673,1.239,0.877,0.411,0.709,0.675,�k,5.5,�L
2019/10/19,01:10,0.711,1.002,0.673,1.235,0.877,0.412,0.708,0.673,�k,5.2,�L
2019/10/19,01:20,0.707,0.996,0.673,1.233,0.871,0.413,0.707,0.672,�k�k��,5.0,�L
2019/10/19,01:30,0.705,0.991,0.673,1.226,0.869,0.412,0.705,0.670,�k�k��,4.9,�L
2019/10/19,01:40,0.704,0.987,0.670,1.220,0.866,0.412,0.704,0.670,�k�k��,5.2,�L
2019/10/19,01:50,0.700,0.981,0.669,1.212,0.863,0.409,0.702,0.669,�k�k��,5.3,�L
2019/10/19,02:00,0.697,0.974,0.666,1.205,0.856,0.408,0.701,0.666,�k��,6.4,�L
2019/10/19,02:10,0.695,0.973,0.664,1.202,0.855,0.409,0.700,0.665,�k��,7.1,�L
2019/10/19,02:20,0.696,0.967,0.664,1.199,0.852,0.409,0.699,0.664,�k��,6.9,�L
2019/10/19,02:30,0.694,0.966,0.662,1.189,0.847,0.405,0.698,0.662,�k��,7.2,�L
2019/10/19,02:40,0.693,0.964,0.661,1.189,0.844,0.407,0.697,0.662,�k�k��,8.2,�L
2019/10/19,02:50,0.694,0.964,0.658,1.191,0.845,0.405,0.696,0.661,�k�k��,8.8,�L
2019/10/19,03:00,0.692,0.964,0.659,1.187,0.842,0.407,0.694,0.660,�k�k��,7.4,�L
2019/10/19,03:10,0.692,0.962,0.657,1.188,0.841,0.407,0.693,0.662,�k��,7.4,�L
2019/10/19,03:20,0.690,0.958,0.657,1.184,0.837,0.406,0.692,0.659,�k�k��,7.7,�L
2019/10/19,03:30,0.690,0.958,0.653,1.182,0.836,0.404,0.692,0.658,�k�k��,6.9,�L
2019/10/19,03:40,0.690,0.958,0.652,1.183,0.834,0.407,0.692,0.662,�k�k��,7.7,�L
2019/10/19,03:50,0.690,0.959,0.652,1.183,0.835,0.405,0.692,0.659,�k�k��,5.8,�L
2019/10/19,04:00,0.691,0.961,0.652,1.183,0.833,0.403,0.691,0.660,�k�k��,6.4,�L
2019/10/19,04:10,0.690,0.957,0.650,1.184,0.832,0.403,0.692,0.658,�k�k��,6.6,�L
2019/10/19,04:20,0.688,0.958,0.650,1.179,0.829,0.404,0.693,0.659,�k�k��,5.2,�L
2019/10/19,04:30,0.691,0.956,0.650,1.181,0.833,0.403,0.690,0.658,�k�k��,5.6,�L
2019/10/19,04:40,0.688,0.954,0.649,1.178,0.829,0.403,0.690,0.659,�k�k��,5.0,�L
2019/10/19,04:50,0.689,0.954,0.649,1.177,0.827,0.404,0.691,0.658,�k�k��,5.2,�L
2019/10/19,05:00,0.689,0.957,0.647,1.179,0.827,0.404,0.689,0.659,�k��,6.1,�L
2019/10/19,05:10,0.689,0.953,0.648,1.178,0.826,0.405,0.689,0.659,�k�k��,6.0,�L
2019/10/19,05:20,0.686,0.953,0.645,1.175,0.824,0.403,0.687,0.657,�k��,5.6,�L
2019/10/19,05:30,0.688,0.954,0.643,1.175,0.820,0.404,0.689,0.657,�k��,5.2,�L
2019/10/19,05:40,0.687,0.952,0.646,1.175,0.822,0.401,0.690,0.657,�k��,5.8,�L
2019/10/19,05:50,0.686,0.954,0.643,1.175,0.820,0.402,0.689,0.656,�k��,3.9,�L
2019/10/19,06:00,0.684,0.951,0.640,1.173,0.816,0.402,0.685,0.655,�k��,4.7,�L
2019/10/19,06:10,0.685,0.948,0.638,1.171,0.817,0.401,0.685,0.655,�k��,5.6,�L
2019/10/19,06:20,0.683,0.948,0.637,1.169,0.817,0.403,0.685,0.654,�k��,4.9,�L
2019/10/19,06:30,0.684,0.947,0.637,1.170,0.817,0.401,0.686,0.654,�k�k��,4.0,�L
2019/10/19,06:40,0.683,0.948,0.636,1.169,0.817,0.402,0.684,0.654,�k�k��,3.1,�L
2019/10/19,06:50,0.685,0.947,0.636,1.170,0.815,0.403,0.686,0.655,�k��,3.5,�L
2019/10/19,07:00,0.686,0.952,0.638,1.171,0.816,0.402,0.687,0.655,���k��,3.0,�L
2019/10/19,07:10,0.683,0.946,0.633,1.168,0.811,0.402,0.685,0.654,���k��,3.5,�L
2019/10/19,07:20,0.683,0.943,0.632,1.167,0.808,0.403,0.683,0.651,��,2.2,�L
2019/10/19,07:30,0.683,0.945,0.632,1.166,0.808,0.402,0.684,0.653,��,1.3,�L
2019/10/19,07:40,0.688,0.949,0.629,1.170,0.810,0.404,0.687,0.654,���k��,1.7,�L
2019/10/19,07:50,0.690,0.953,0.628,1.172,0.813,0.405,0.687,0.656,���k��,2.2,�L
2019/10/19,08:00,0.690,0.953,0.628,1.173,0.813,0.406,0.689,0.655,�쐼,1.4,�L
2019/10/19,08:10,0.690,0.950,0.629,1.177,0.812,0.406,0.686,0.655,�쐼,0.6,�L
2019/10/19,08:20,0.689,0.951,0.628,1.177,0.812,0.406,0.690,0.657,��쐼,1.0,�L
2019/10/19,08:30,0.693,0.956,0.629,1.179,0.813,0.407,0.687,0.655,��쐼,1.1,�L
2019/10/19,08:40,0.693,0.957,0.630,1.182,0.815,0.407,0.689,0.658,��,1.3,�L
2019/10/19,08:50,0.693,0.957,0.631,1.180,0.814,0.406,0.689,0.657,�쓌,1.7,�L
2019/10/19,09:00,0.693,0.955,0.630,1.184,0.814,0.408,0.688,0.658,�쓌,2.3,�L
2019/10/19,09:10,0.693,0.955,0.631,1.184,0.814,0.408,0.691,0.658,��,1.8,�L
2019/10/19,09:20,0.692,0.953,0.631,1.184,0.815,0.406,0.691,0.659,��쓌,3.1,�L
2019/10/19,09:30,0.693,0.950,0.632,1.183,0.813,0.405,0.688,0.658,��쓌,2.8,�L
2019/10/19,09:40,0.690,0.949,0.630,1.183,0.812,0.406,0.688,0.657,�쓌,3.1,�L
2019/10/19,09:50,0.689,0.949,0.630,1.180,0.809,0.406,0.690,0.655,��쓌,3.8,�L
2019/10/19,10:00,0.691,0.945,0.631,1.178,0.811,0.407,0.687,0.656,��쓌,3.6,�L
2019/10/19,10:10,0.687,0.942,0.626,1.169,0.805,0.406,0.686,0.654,��쓌,2.0,�L
2019/10/19,10:20,0.689,0.945,0.625,1.171,0.804,0.408,0.688,0.656,��쓌,2.0,�L
2019/10/19,10:30,0.690,0.947,0.625,1.173,0.805,0.407,0.687,0.656,��쓌,1.6,�L
2019/10/19,10:40,0.690,0.949,0.623,1.174,0.805,0.407,0.687,0.658,���쐼,0.5,�L
2019/10/19,10:50,0.691,0.952,0.625,1.178,0.807,0.408,0.689,0.657,-,CALM,�L
2019/10/19,11:00,0.694,0.955,0.626,1.180,0.806,0.407,0.689,0.658,�k��,1.8,�L
2019/10/19,11:10,0.692,0.954,0.626,1.183,0.809,0.407,0.688,0.658,�k��,2.1,�L
2019/10/19,11:20,0.693,0.955,0.628,1.182,0.806,0.407,0.691,0.656,�k�k��,2.2,�L
2019/10/19,11:30,0.692,0.955,0.625,1.181,0.808,0.405,0.691,0.659,�k��,2.5,�L
2019/10/19,11:40,0.692,0.952,0.625,1.181,0.810,0.405,0.691,0.660,�k�k��,3.3,�L
2019/10/19,11:50,0.690,0.950,0.625,1.180,0.806,0.403,0.690,0.680,�k�k��,3.3,�L
2019/10/19,12:00,0.688,0.949,0.623,1.175,0.804,0.403,0.687,0.656,�k�k��,2.9,�L
2019/10/19,12:10,0.687,0.950,0.624,1.177,0.804,0.403,0.689,0.657,�k��,2.7,�L
2019/10/19,12:20,0.688,0.950,0.625,1.176,0.805,0.402,0.688,0.656,�k�k��,4.5,�L
2019/10/19,12:30,0.689,0.950,0.623,1.175,0.806,0.401,0.690,0.656,�k�k��,5.7,�L
2019/10/19,12:40,0.688,0.948,0.625,1.175,0.804,0.403,0.688,0.656,�k�k��,6.0,�L
2019/10/19,12:50,0.688,0.949,0.626,1.176,0.807,0.401,0.691,0.657,�k,5.0,�L
2019/10/19,13:00,0.687,0.948,0.626,1.176,0.805,0.403,0.690,0.657,�k�k��,6.1,�L
2019/10/19,13:10,0.690,0.951,0.624,1.175,0.805,0.403,0.689,0.657,�k�k��,6.0,�L
2019/10/19,13:20,0.690,0.954,0.628,1.179,0.807,0.403,0.690,0.658,�k�k��,6.4,�L
2019/10/19,13:30,0.690,0.954,0.628,1.183,0.812,0.402,0.691,0.658,�k�k��,6.6,�L
2019/10/19,13:40,0.692,0.953,0.629,1.186,0.811,0.402,0.693,0.658,�k�k��,6.7,�L
2019/10/19,13:50,0.691,0.957,0.632,1.186,0.813,0.402,0.692,0.658,�k�k��,6.4,��
2019/10/19,14:00,0.693,0.956,0.631,1.188,0.812,0.402,0.694,0.660,�k�k��,5.3,��
2019/10/19,14:10,0.692,0.957,0.633,1.191,0.814,0.403,0.694,0.660,�k�k��,6.7,��
2019/10/19,14:20,0.696,0.961,0.634,1.190,0.816,0.403,0.695,0.662,�k�k��,6.6,��
2019/10/19,14:30,0.693,0.962,0.636,1.192,0.818,0.402,0.697,0.662,�k�k��,5.5,��
2019/10/19,14:40,0.693,0.963,0.637,1.193,0.819,0.402,0.696,0.663,�k�k��,4.9,��
2019/10/19,14:50,0.693,0.963,0.636,1.195,0.820,0.401,0.696,0.662,�k�k��,5.8,��
2019/10/19,15:00,0.695,0.962,0.638,1.194,0.820,0.401,0.697,0.662,�k�k��,5.2,��
2019/10/19,15:10,0.695,0.964,0.640,1.199,0.821,0.402,0.697,0.662,�k�k��,4.7,��
2019/10/19,15:20,0.697,0.965,0.641,1.199,0.823,0.403,0.697,0.664,�k�k��,4.3,��
2019/10/19,15:30,0.697,0.964,0.640,1.200,0.823,0.403,0.699,0.664,�k�k��,4.7,��
2019/10/19,15:40,0.695,0.969,0.644,1.201,0.824,0.401,0.697,0.664,�k�k��,5.2,��
2019/10/19,15:50,0.695,0.967,0.644,1.197,0.824,0.401,0.698,0.663,�k,4.9,��
2019/10/19,16:00,0.694,0.970,0.643,1.204,0.825,0.403,0.698,0.663,�k�k��,6.0,��
2019/10/19,16:10,0.697,0.968,0.645,1.203,0.825,0.403,0.697,0.664,�k�k��,4.9,��
2019/10/19,16:20,0.695,0.969,0.645,1.203,0.826,0.402,0.698,0.665,�k,4.5,��
2019/10/19,16:30,0.695,0.969,0.646,1.205,0.826,0.404,0.699,0.665,�k�k��,4.9,��
2019/10/19,16:40,0.697,0.971,0.646,1.204,0.826,0.402,0.698,0.665,�k,3.2,��
2019/10/19,16:50,0.697,0.973,0.647,1.205,0.829,0.404,0.699,0.666,�k�k��,2.7,��
2019/10/19,17:00,0.697,0.975,0.650,1.206,0.826,0.402,0.698,0.666,-,CALM,��
2019/10/19,17:10,0.697,0.976,0.650,1.206,0.829,0.404,0.699,0.664,�k�k��,0.8,��
2019/10/19,17:20,0.698,0.976,0.652,1.205,0.831,0.404,0.700,0.666,�쐼,0.5,��
2019/10/19,17:30,0.699,0.976,0.652,1.208,0.830,0.405,0.699,0.667,-,CALM,��
2019/10/19,17:40,0.700,0.977,0.654,1.208,0.832,0.405,0.699,0.668,-,CALM,��
2019/10/19,17:50,0.698,0.978,0.654,1.210,0.834,0.404,0.698,0.668,��쓌,0.5,��
2019/10/19,18:00,0.699,0.977,0.653,1.206,0.832,0.406,0.698,0.665,�쓌,1.2,��
2019/10/19,18:10,0.699,0.979,0.654,1.207,0.833,0.405,0.698,0.663,��쓌,1.3,�L
2019/10/19,18:20,0.699,0.979,0.653,1.206,0.830,0.405,0.697,0.665,��,2.1,�L
2019/10/19,18:30,0.697,0.977,0.654,1.205,0.830,0.405,0.697,0.664,��,2.9,�L
2019/10/19,18:40,0.696,0.974,0.652,1.204,0.828,0.404,0.699,0.665,��쓌,2.7,�L
2019/10/19,18:50,0.694,0.973,0.653,1.205,0.828,0.404,0.698,0.662,��쓌,2.1,�L
2019/10/19,19:00,0.695,0.972,0.652,1.206,0.830,0.403,0.698,0.664,��쓌,2.1,�L
2019/10/19,19:10,0.694,0.972,0.652,1.204,0.829,0.405,0.698,0.662,��쓌,2.9,�L
2019/10/19,19:20,0.692,0.972,0.653,1.202,0.829,0.404,0.696,0.663,��쓌,3.8,�L
2019/10/19,19:30,0.695,0.974,0.653,1.201,0.830,0.403,0.698,0.663,��,4.4,�L
2019/10/19,19:40,0.695,0.973,0.652,1.204,0.829,0.405,0.697,0.664,��,4.2,�L
2019/10/19,19:50,0.694,0.972,0.653,1.206,0.830,0.404,0.698,0.662,��,3.5,�L
2019/10/19,20:00,0.695,0.972,0.652,1.204,0.830,0.403,0.697,0.663,��,4.1,�L
2019/10/19,20:10,0.696,0.975,0.653,1.204,0.829,0.405,0.697,0.663,��,3.9,�L
2019/10/19,20:20,0.696,0.974,0.653,1.204,0.830,0.403,0.698,0.664,��,3.4,��
2019/10/19,20:30,0.695,0.972,0.653,1.204,0.831,0.404,0.696,0.666,��,1.9,��
2019/10/19,20:40,0.695,0.973,0.654,1.204,0.831,0.405,0.699,0.665,��,2.3,��
2019/10/19,20:50,0.696,0.974,0.652,1.205,0.832,0.404,0.698,0.665,��,1.3,��
2019/10/19,21:00,0.697,0.976,0.652,1.203,0.831,0.404,0.698,0.666,��,2.0,�L
2019/10/19,21:10,0.696,0.974,0.654,1.205,0.835,0.403,0.697,0.666,��쓌,0.8,��
2019/10/19,21:20,0.698,0.975,0.654,1.207,0.834,0.404,0.697,0.664,��,1.3,��
2019/10/19,21:30,0.697,0.975,0.654,1.205,0.833,0.404,0.697,0.665,��쐼,0.8,��
2019/10/19,21:40,0.697,0.974,0.653,1.207,0.834,0.405,0.698,0.665,���k��,1.4,��
2019/10/19,21:50,0.695,0.976,0.653,1.206,0.835,0.403,0.698,0.665,�k�k��,1.3,��
2019/10/19,22:00,0.696,0.978,0.654,1.207,0.836,0.404,0.698,0.664,�k��,1.7,��
2019/10/19,22:10,0.697,0.974,0.655,1.207,0.835,0.404,0.699,0.665,�k��,3.8,��
2019/10/19,22:20,0.697,0.979,0.654,1.206,0.835,0.404,0.698,0.664,���k��,4.1,��
2019/10/19,22:30,0.698,0.975,0.655,1.205,0.834,0.404,0.699,0.666,���k��,4.3,��
2019/10/19,22:40,0.699,0.977,0.654,1.204,0.836,0.404,0.699,0.667,���k��,2.5,��
2019/10/19,22:50,0.699,0.978,0.652,1.205,0.837,0.405,0.699,0.667,��,4.3,��
2019/10/19,23:00,0.698,0.976,0.655,1.207,0.837,0.404,0.699,0.667,��,2.4,�L
2019/10/19,23:10,0.696,0.977,0.655,1.208,0.837,0.406,0.700,0.668,���k��,3.0,�L
2019/10/19,23:20,0.700,0.978,0.657,1.209,0.837,0.406,0.700,0.668,�k��,1.0,�L
2019/10/19,23:30,0.700,0.978,0.656,1.207,0.837,0.407,0.701,0.668,�k��,0.5,��
2019/10/19,23:40,0.698,0.978,0.657,1.208,0.837,0.405,0.698,0.668,-,CALM,��
2019/10/19,23:50,0.698,0.979,0.655,1.208,0.839,0.406,0.700,0.667,�k�k��,2.4,��
